Time,TemperatureF,DewpointF,PressureIn,WindDirection,WindDirectionDegrees,WindSpeedMPH,WindSpeedGustMPH,Humidity,HourlyPrecipIn,Conditions,Clouds,dailyrainin,SoftwareType,DateUTC
2013-03-28 00:03:00,27.0,21.0,30.10,WNW,284,3.0,18.0,79,0.00,,,0.00,,2013-03-28 04:03:00,
2013-03-28 00:12:00,27.0,21.0,30.10,WNW,284,3.0,18.0,79,0.00,,,0.00,,2013-03-28 04:12:00,
2013-03-28 00:23:00,27.0,21.0,30.10,WNW,284,3.0,18.0,79,0.00,,,0.00,,2013-03-28 04:23:00,
2013-03-28 00:32:00,27.0,21.0,30.10,North,351,4.0,17.0,78,0.00,,,0.00,,2013-03-28 04:32:00,
2013-03-28 00:42:00,27.0,21.0,30.10,North,351,4.0,17.0,78,0.00,,,0.00,,2013-03-28 04:42:00,
2013-03-28 00:52:00,27.0,21.0,30.10,North,351,4.0,17.0,78,0.00,,,0.00,,2013-03-28 04:52:00,
2013-03-28 01:02:00,27.0,21.0,30.09,SSE,162,3.0,8.0,78,0.00,,,0.00,,2013-03-28 05:02:00,
2013-03-28 01:12:00,27.0,21.0,30.09,SSE,162,3.0,8.0,78,0.00,,,0.00,,2013-03-28 05:12:00,
2013-03-28 01:22:00,27.0,22.0,30.09,WNW,289,4.0,14.0,81,0.00,,,0.00,,2013-03-28 05:22:00,
2013-03-28 01:32:00,27.0,23.0,30.09,WSW,257,3.0,16.0,83,0.00,,,0.00,,2013-03-28 05:32:00,
2013-03-28 01:42:00,27.0,23.0,30.09,WSW,257,3.0,16.0,83,0.00,,,0.00,,2013-03-28 05:42:00,
2013-03-28 01:52:00,27.0,23.0,30.09,West,271,5.0,13.0,85,0.00,,,0.00,,2013-03-28 05:52:00,
2013-03-28 02:02:00,26.0,22.0,30.09,East,90,1.0,8.0,86,0.00,,,0.00,,2013-03-28 06:02:00,
2013-03-28 02:12:00,26.0,22.0,30.09,East,90,1.0,8.0,86,0.00,,,0.00,,2013-03-28 06:12:00,
2013-03-28 02:22:00,26.0,22.0,30.09,WSW,258,2.0,8.0,86,0.00,,,0.00,,2013-03-28 06:22:00,
2013-03-28 02:32:00,26.0,22.0,30.09,NW,315,1.0,16.0,85,0.00,,,0.00,,2013-03-28 06:32:00,
2013-03-28 02:42:00,26.0,22.0,30.09,NW,315,1.0,16.0,85,0.00,,,0.00,,2013-03-28 06:42:00,
2013-03-28 02:52:00,26.0,22.0,30.09,NW,315,1.0,16.0,85,0.00,,,0.00,,2013-03-28 06:52:00,
2013-03-28 03:02:00,26.0,22.0,30.09,NW,321,2.0,7.0,85,0.00,,,0.00,,2013-03-28 07:02:00,
2013-03-28 03:13:00,26.0,22.0,30.09,NW,321,2.0,7.0,85,0.00,,,0.00,,2013-03-28 07:13:00,
2013-03-28 03:20:00,26.0,22.0,30.09,North,0,0.0,8.0,86,0.00,,,0.00,,2013-03-28 07:20:00,
2013-03-28 03:22:00,26.0,22.0,30.09,NW,321,2.0,7.0,85,0.00,,,0.00,,2013-03-28 07:22:00,
2013-03-28 03:32:00,26.0,22.0,30.09,NNW,339,1.0,5.0,86,0.00,,,0.00,,2013-03-28 07:32:00,
2013-03-28 03:42:00,26.0,22.0,30.09,NNW,339,1.0,5.0,86,0.00,,,0.00,,2013-03-28 07:42:00,
2013-03-28 03:52:00,26.0,22.0,30.09,North,0,0.0,8.0,86,0.00,,,0.00,,2013-03-28 07:52:00,
2013-03-28 04:02:00,26.0,22.0,30.09,North,0,0.0,8.0,86,0.00,,,0.00,,2013-03-28 08:02:00,
2013-03-28 04:12:00,26.0,22.0,30.09,North,0,0.0,8.0,86,0.00,,,0.00,,2013-03-28 08:12:00,
2013-03-28 04:33:00,26.0,21.0,30.08,SE,127,2.0,5.0,82,0.00,,,0.00,,2013-03-28 08:33:00,
2013-03-28 04:42:00,26.0,21.0,30.08,SE,127,2.0,5.0,82,0.00,,,0.00,,2013-03-28 08:42:00,
2013-03-28 04:52:00,26.0,21.0,30.08,SE,127,2.0,5.0,82,0.00,,,0.00,,2013-03-28 08:52:00,
2013-03-28 05:02:00,26.0,21.0,30.07,North,0,0.0,11.0,80,0.00,,,0.00,,2013-03-28 09:02:00,
2013-03-28 05:12:00,26.0,21.0,30.07,North,0,0.0,11.0,80,0.00,,,0.00,,2013-03-28 09:12:00,
2013-03-28 05:22:00,27.0,21.0,30.08,NW,311,4.0,15.0,78,0.00,,,0.00,,2013-03-28 09:22:00,
2013-03-28 05:33:00,27.0,21.0,30.08,WNW,298,4.0,11.0,78,0.00,,,0.00,,2013-03-28 09:33:00,
2013-03-28 05:42:00,27.0,21.0,30.08,WNW,298,4.0,11.0,78,0.00,,,0.00,,2013-03-28 09:42:00,
2013-03-28 05:52:00,27.0,21.0,30.08,WNW,298,4.0,11.0,78,0.00,,,0.00,,2013-03-28 09:52:00,
2013-03-28 06:03:00,26.0,19.0,30.09,WNW,284,6.0,16.0,73,0.00,,,0.00,,2013-03-28 10:03:00,
2013-03-28 06:12:00,26.0,19.0,30.09,WNW,284,6.0,16.0,73,0.00,,,0.00,,2013-03-28 10:12:00,
2013-03-28 06:22:00,26.0,19.0,30.09,WNW,284,6.0,16.0,73,0.00,,,0.00,,2013-03-28 10:22:00,
2013-03-28 06:33:00,27.0,19.0,30.09,WNW,292,9.0,18.0,70,0.00,,,0.00,,2013-03-28 10:33:00,
2013-03-28 06:43:00,27.0,19.0,30.09,WNW,292,9.0,18.0,70,0.00,,,0.00,,2013-03-28 10:43:00,
2013-03-28 06:53:00,26.0,18.0,30.09,West,280,10.0,23.0,71,0.00,,,0.00,,2013-03-28 10:53:00,
2013-03-28 07:02:00,26.0,18.0,30.10,NNW,338,4.0,12.0,71,0.00,,,0.00,,2013-03-28 11:02:00,
2013-03-28 07:12:00,26.0,18.0,30.10,NNW,338,4.0,12.0,71,0.00,,,0.00,,2013-03-28 11:12:00,
2013-03-28 07:23:00,26.0,18.0,30.10,NNW,338,4.0,12.0,71,0.00,,,0.00,,2013-03-28 11:23:00,
2013-03-28 07:32:00,26.0,19.0,30.10,North,4,5.0,12.0,73,0.00,,,0.00,,2013-03-28 11:32:00,
2013-03-28 07:43:00,26.0,19.0,30.10,North,4,5.0,12.0,73,0.00,,,0.00,,2013-03-28 11:43:00,
2013-03-28 07:52:00,26.0,18.0,30.10,NNW,336,5.0,19.0,71,0.00,,,0.00,,2013-03-28 11:52:00,
2013-03-28 08:02:00,26.0,17.0,30.10,NNW,343,7.0,17.0,68,0.00,,,0.00,,2013-03-28 12:02:00,
2013-03-28 08:12:00,26.0,17.0,30.10,NNW,343,7.0,17.0,68,0.00,,,0.00,,2013-03-28 12:12:00,
2013-03-28 08:22:00,26.0,17.0,30.10,NNW,343,7.0,17.0,68,0.00,,,0.00,,2013-03-28 12:22:00,
2013-03-28 08:32:00,26.0,18.0,30.11,West,275,4.0,20.0,70,0.00,,,0.00,,2013-03-28 12:32:00,
2013-03-28 08:42:00,26.0,18.0,30.11,West,275,4.0,20.0,70,0.00,,,0.00,,2013-03-28 12:42:00,
2013-03-28 08:52:00,27.0,19.0,30.11,North,352,6.0,18.0,70,0.00,,,0.00,,2013-03-28 12:52:00,
2013-03-28 09:02:00,27.0,18.0,30.12,North,354,6.0,18.0,68,0.00,,,0.00,,2013-03-28 13:02:00,
2013-03-28 09:12:00,27.0,18.0,30.12,North,354,6.0,18.0,68,0.00,,,0.00,,2013-03-28 13:12:00,
2013-03-28 09:22:00,27.0,18.0,30.12,North,354,6.0,18.0,68,0.00,,,0.00,,2013-03-28 13:22:00,
2013-03-28 09:32:00,27.0,18.0,30.13,NW,318,7.0,16.0,68,0.00,,,0.00,,2013-03-28 13:32:00,
2013-03-28 09:42:00,27.0,18.0,30.13,NW,318,7.0,16.0,68,0.00,,,0.00,,2013-03-28 13:42:00,
2013-03-28 09:52:00,27.0,18.0,30.13,West,269,6.0,17.0,68,0.00,,,0.00,,2013-03-28 13:52:00,
2013-03-28 10:02:00,27.0,18.0,30.13,West,276,7.0,26.0,67,0.00,,,0.00,,2013-03-28 14:02:00,
2013-03-28 10:12:00,27.0,18.0,30.13,West,276,7.0,26.0,67,0.00,,,0.00,,2013-03-28 14:12:00,
2013-03-28 10:22:00,28.0,18.0,30.13,WNW,295,9.0,20.0,66,0.00,,,0.00,,2013-03-28 14:22:00,
2013-03-28 10:33:00,29.0,19.0,30.13,NW,312,7.0,14.0,65,0.00,,,0.00,,2013-03-28 14:33:00,
2013-03-28 10:42:00,29.0,19.0,30.13,NW,312,7.0,14.0,65,0.00,,,0.00,,2013-03-28 14:42:00,
2013-03-28 10:52:00,29.0,19.0,30.13,NW,312,7.0,14.0,65,0.00,,,0.00,,2013-03-28 14:52:00,
2013-03-28 11:02:00,29.0,18.0,30.13,WNW,287,9.0,22.0,63,0.00,,,0.00,,2013-03-28 15:02:00,
2013-03-28 11:12:00,29.0,18.0,30.13,WNW,287,9.0,22.0,63,0.00,,,0.00,,2013-03-28 15:12:00,
2013-03-28 11:22:00,30.0,19.0,30.13,NW,324,6.0,21.0,62,0.00,,,0.00,,2013-03-28 15:22:00,
2013-03-28 11:33:00,31.0,20.0,30.13,WNW,299,4.0,14.0,62,0.00,,,0.00,,2013-03-28 15:33:00,
2013-03-28 11:43:00,31.0,20.0,30.13,WNW,299,4.0,14.0,62,0.00,,,0.00,,2013-03-28 15:43:00,
2013-03-28 11:52:00,31.0,20.0,30.13,WNW,302,4.0,20.0,62,0.00,,,0.00,,2013-03-28 15:52:00,
2013-03-28 12:03:00,32.0,20.0,30.13,NNW,339,4.0,18.0,60,0.00,,,0.00,,2013-03-28 16:03:00,
2013-03-28 12:12:00,32.0,20.0,30.13,NNW,339,4.0,18.0,60,0.00,,,0.00,,2013-03-28 16:12:00,
2013-03-28 12:23:00,32.0,19.0,30.13,NW,308,4.0,22.0,59,0.00,,,0.00,,2013-03-28 16:23:00,
2013-03-28 12:32:00,32.0,20.0,30.13,NW,315,4.0,15.0,61,0.00,,,0.00,,2013-03-28 16:32:00,
2013-03-28 12:42:00,32.0,20.0,30.13,NW,315,4.0,15.0,61,0.00,,,0.00,,2013-03-28 16:42:00,
2013-03-28 12:52:00,32.0,20.0,30.13,NW,315,4.0,15.0,61,0.00,,,0.00,,2013-03-28 16:52:00,
2013-03-28 13:02:00,34.0,21.0,30.13,West,264,3.0,15.0,59,0.00,,,0.00,,2013-03-28 17:02:00,
2013-03-28 13:12:00,34.0,21.0,30.13,West,264,3.0,15.0,59,0.00,,,0.00,,2013-03-28 17:12:00,
2013-03-28 13:22:00,35.0,22.0,30.12,WNW,299,5.0,17.0,58,0.00,,,0.00,,2013-03-28 17:22:00,
2013-03-28 13:32:00,34.0,20.0,30.12,West,259,8.0,17.0,57,0.00,,,0.00,,2013-03-28 17:32:00,
2013-03-28 13:42:00,34.0,20.0,30.12,West,259,8.0,17.0,57,0.00,,,0.00,,2013-03-28 17:42:00,
2013-03-28 13:52:00,36.0,21.0,30.12,WNW,283,6.0,17.0,54,0.00,,,0.00,,2013-03-28 17:52:00,
2013-03-28 14:02:00,36.0,22.0,30.12,NNW,342,4.0,18.0,56,0.01,,,0.01,,2013-03-28 18:02:00,
2013-03-28 14:12:00,36.0,22.0,30.12,NNW,342,4.0,18.0,56,0.01,,,0.01,,2013-03-28 18:12:00,
2013-03-28 14:22:00,36.0,22.0,30.12,NNW,342,4.0,18.0,56,0.01,,,0.01,,2013-03-28 18:22:00,
2013-03-28 14:32:00,37.0,21.0,30.12,West,279,5.0,16.0,53,0.02,,,0.02,,2013-03-28 18:32:00,
2013-03-28 14:42:00,37.0,21.0,30.12,West,279,5.0,16.0,53,0.02,,,0.02,,2013-03-28 18:42:00,
2013-03-28 14:52:00,37.0,21.0,30.11,West,268,7.0,18.0,53,0.03,,,0.03,,2013-03-28 18:52:00,
2013-03-28 15:02:00,36.0,21.0,30.11,West,281,5.0,21.0,53,0.03,,,0.04,,2013-03-28 19:02:00,
2013-03-28 15:12:00,36.0,21.0,30.11,West,281,5.0,21.0,53,0.03,,,0.04,,2013-03-28 19:12:00,
2013-03-28 15:22:00,37.0,21.0,30.11,West,278,4.0,19.0,52,0.03,,,0.05,,2013-03-28 19:22:00,
2013-03-28 15:33:00,38.0,22.0,30.11,West,272,4.0,20.0,51,0.03,,,0.05,,2013-03-28 19:33:00,
2013-03-28 15:42:00,38.0,22.0,30.11,West,272,4.0,20.0,51,0.03,,,0.05,,2013-03-28 19:42:00,
2013-03-28 15:52:00,38.0,22.0,30.11,West,272,4.0,20.0,51,0.03,,,0.05,,2013-03-28 19:52:00,
2013-03-28 16:03:00,38.0,21.0,30.11,NW,304,8.0,17.0,50,0.01,,,0.05,,2013-03-28 20:03:00,
2013-03-28 16:13:00,38.0,21.0,30.11,NW,304,8.0,17.0,50,0.01,,,0.05,,2013-03-28 20:13:00,
2013-03-28 16:22:00,38.0,21.0,30.11,NW,304,8.0,17.0,50,0.01,,,0.05,,2013-03-28 20:22:00,
2013-03-28 16:32:00,38.0,22.0,30.11,West,274,2.0,21.0,53,0.00,,,0.05,,2013-03-28 20:32:00,
2013-03-28 16:42:00,38.0,22.0,30.11,West,274,2.0,21.0,53,0.00,,,0.05,,2013-03-28 20:42:00,
2013-03-28 16:53:00,38.0,22.0,30.11,NW,320,4.0,9.0,51,0.00,,,0.05,,2013-03-28 20:53:00,
2013-03-28 17:02:00,38.0,22.0,30.11,North,360,3.0,11.0,51,0.00,,,0.05,,2013-03-28 21:02:00,
2013-03-28 17:12:00,38.0,22.0,30.11,North,360,3.0,11.0,51,0.00,,,0.05,,2013-03-28 21:12:00,
2013-03-28 17:22:00,38.0,22.0,30.11,North,360,3.0,11.0,51,0.00,,,0.05,,2013-03-28 21:22:00,
2013-03-28 17:33:00,38.0,22.0,30.11,North,360,3.0,11.0,51,0.00,,,0.05,,2013-03-28 21:33:00,
2013-03-28 17:43:00,38.0,22.0,30.11,North,360,3.0,11.0,51,0.00,,,0.05,,2013-03-28 21:43:00,
2013-03-28 17:53:00,39.0,22.0,30.11,NW,325,3.0,15.0,50,0.00,,,0.05,,2013-03-28 21:53:00,
2013-03-28 18:03:00,37.0,21.0,30.11,SW,234,2.0,10.0,52,0.00,,,0.05,,2013-03-28 22:03:00,
2013-03-28 18:13:00,37.0,21.0,30.11,SW,234,2.0,10.0,52,0.00,,,0.05,,2013-03-28 22:13:00,
2013-03-28 18:22:00,37.0,21.0,30.11,SW,234,2.0,10.0,52,0.00,,,0.05,,2013-03-28 22:22:00,
2013-03-28 18:32:00,37.0,21.0,30.12,North,0,0.0,8.0,52,0.00,,,0.05,,2013-03-28 22:32:00,
2013-03-28 18:42:00,37.0,21.0,30.12,North,0,0.0,8.0,52,0.00,,,0.05,,2013-03-28 22:42:00,
2013-03-28 18:52:00,36.0,21.0,30.12,SE,141,1.0,6.0,53,0.00,,,0.05,,2013-03-28 22:52:00,
2013-03-28 19:03:00,36.0,21.0,30.13,WNW,282,5.0,19.0,55,0.00,,,0.05,,2013-03-28 23:03:00,
2013-03-28 19:12:00,36.0,21.0,30.13,WNW,282,5.0,19.0,55,0.00,,,0.05,,2013-03-28 23:12:00,
2013-03-28 19:22:00,35.0,21.0,30.14,NNW,343,6.0,12.0,57,0.00,,,0.05,,2013-03-28 23:22:00,
2013-03-28 19:32:00,35.0,21.0,30.14,North,354,2.0,11.0,57,0.00,,,0.05,,2013-03-28 23:32:00,
2013-03-28 19:42:00,35.0,21.0,30.14,North,354,2.0,11.0,57,0.00,,,0.05,,2013-03-28 23:42:00,
2013-03-28 19:52:00,34.0,21.0,30.14,North,355,3.0,11.0,58,0.00,,,0.05,,2013-03-28 23:52:00,
2013-03-28 20:02:00,34.0,21.0,30.14,NW,312,1.0,14.0,59,0.00,,,0.05,,2013-03-29 00:02:00,
2013-03-28 20:12:00,34.0,21.0,30.14,NW,312,1.0,14.0,59,0.00,,,0.05,,2013-03-29 00:12:00,
2013-03-28 20:22:00,34.0,21.0,30.14,NW,312,1.0,14.0,59,0.00,,,0.05,,2013-03-29 00:22:00,
2013-03-28 20:32:00,33.0,21.0,30.15,West,267,4.0,8.0,60,0.00,,,0.05,,2013-03-29 00:32:00,
2013-03-28 20:42:00,33.0,21.0,30.15,West,267,4.0,8.0,60,0.00,,,0.05,,2013-03-29 00:42:00,
2013-03-28 20:52:00,33.0,21.0,30.16,North,0,0.0,3.0,60,0.00,,,0.05,,2013-03-29 00:52:00,
2013-03-28 21:02:00,33.0,21.0,30.16,North,0,0.0,4.0,61,0.00,,,0.05,,2013-03-29 01:02:00,
2013-03-28 21:12:00,33.0,21.0,30.16,North,0,0.0,4.0,61,0.00,,,0.05,,2013-03-29 01:12:00,
2013-03-28 21:22:00,33.0,21.0,30.16,North,0,0.0,4.0,61,0.00,,,0.05,,2013-03-29 01:22:00,
2013-03-28 21:33:00,33.0,21.0,30.16,North,0,0.0,6.0,60,0.00,,,0.05,,2013-03-29 01:33:00,
2013-03-28 21:42:00,33.0,21.0,30.16,North,0,0.0,6.0,60,0.00,,,0.05,,2013-03-29 01:42:00,
2013-03-28 21:52:00,33.0,21.0,30.16,North,0,0.0,8.0,61,0.00,,,0.05,,2013-03-29 01:52:00,
2013-03-28 22:02:00,33.0,21.0,30.17,WNW,296,5.0,13.0,60,0.00,,,0.05,,2013-03-29 02:02:00,
2013-03-28 22:12:00,33.0,21.0,30.17,WNW,296,5.0,13.0,60,0.00,,,0.05,,2013-03-29 02:12:00,
2013-03-28 22:22:00,33.0,21.0,30.17,WNW,296,5.0,13.0,60,0.00,,,0.05,,2013-03-29 02:22:00,
2013-03-28 22:32:00,33.0,20.0,30.17,East,89,1.0,19.0,59,0.00,,,0.05,,2013-03-29 02:32:00,
2013-03-28 22:42:00,33.0,20.0,30.17,East,89,1.0,19.0,59,0.00,,,0.05,,2013-03-29 02:42:00,
2013-03-28 22:53:00,33.0,20.0,30.17,North,0,0.0,10.0,59,0.00,,,0.05,,2013-03-29 02:53:00,
2013-03-28 23:02:00,33.0,21.0,30.18,SSW,200,1.0,5.0,60,0.00,,,0.05,,2013-03-29 03:02:00,
2013-03-28 23:12:00,33.0,21.0,30.18,SSW,200,1.0,5.0,60,0.00,,,0.05,,2013-03-29 03:12:00,
2013-03-28 23:22:00,33.0,21.0,30.18,SSW,200,1.0,5.0,60,0.00,,,0.05,,2013-03-29 03:22:00,
2013-03-28 23:32:00,32.0,20.0,30.18,ESE,115,1.0,4.0,61,0.00,,,0.05,,2013-03-29 03:32:00,
2013-03-28 23:43:00,32.0,20.0,30.18,ESE,115,1.0,4.0,61,0.00,,,0.05,,2013-03-29 03:43:00,
2013-03-28 23:53:00,32.0,20.0,30.18,ESE,115,1.0,4.0,61,0.00,,,0.05,,2013-03-29 03:53:00,